Torna al catalogo

SL-6 R/B(2)

AttivoHEO
NORAD 11079·ROCKET BODY·🇷🇺 Russia

Lanciato Oct 13, 1978 da Plesetsk Cosmodrome

Loading…

Prossimi Passaggi (prossime 24 ore)

TLE

AggiornatoSource: Space-Track

Epoca: Sep 8, 2026, 00:44 UTC

1 11079U 78095E   26251.03092902  .00000000  00000-0 -41410-2 0  9991
2 11079  63.9608 262.3277 6959514 273.2163  16.1163  2.23600456 94418

Traccia SL-6 R/B(2) in tempo reale con AllMySat

Download on the App Store